Regional Weather Roundup
Issued by NWS

Home | Current Version | Previous Version | Text Only | Print | Product List | Glossary On
Versions: 1 2 3 4 5 6 7 8 9 10 11 12 13 14 15 16 17 18 19 20 21 22 23 24 25 26 27 28
000
ASUS45 KPSR 211810
RWRAZ

ARIZONA HOURLY REGIONAL WEATHER ROUNDUP
NATIONAL WEATHER SERVICE PHOENIX AZ
1100 AM MST SAT APR 21 2018

NOTE: FAIR INDICATES FEW OR NO CLOUDS BELOW 12,000 FEET WITH NO
SIGNIFICANT WEATHER AND/OR OBSTRUCTIONS TO VISIBILITY.

AZZ001>003-036-211900-
NORTHWEST ARIZONA

CITY           SKY/WX    TMP DP  RH WIND       PRES   REMARKS
BULLHEAD CITY  SUNNY     82  28  14 N10       30.04F
KINGMAN        SUNNY     75  27  17 NE9       30.15F
6HR MIN TEMP:  42; 6HR MAX TEMP:  75;

$$

AZZ004>008-015-016-018-211900-
NORTH CENTRAL ARIZONA

CITY           SKY/WX    TMP DP  RH WIND       PRES   REMARKS
GRAND CANYON   SUNNY     58  26  29 VRB5      30.24F
6HR MIN TEMP:  20; 6HR MAX TEMP:  58;

WILLIAMS       SUNNY     59  23  25 VRB6G13   30.24S
PRESCOTT       SUNNY     65  25  22 N14G20    30.19F
6HR MIN TEMP:  37; 6HR MAX TEMP:  65;

FLAGSTAFF      SUNNY     56  25  30 SE6       30.24S
6HR MIN TEMP:  22; 6HR MAX TEMP:  57;

PAYSON         SUNNY     64  27  24 N8G16     30.17F
PAGE           SUNNY     61  35  37 NE6       30.17F
6HR MIN TEMP:  41; 6HR MAX TEMP:  61;

$$

AZZ009>014-017-211900-
NORTHEAST ARIZONA

CITY           SKY/WX    TMP DP  RH WIND       PRES   REMARKS
WINSLOW        SUNNY     61  33  35 NW7       30.20S
6HR MIN TEMP:  30; 6HR MAX TEMP:  62;

SAINT JOHNS    SUNNY     58  35  42 W12G21    30.19F
6HR MIN TEMP:  32; 6HR MAX TEMP:  58;

WINDOW ROCK    PTSUNNY   56  30  37 N13G20    30.18S
6HR MIN TEMP:  32; 6HR MAX TEMP:  57;

SHOW LOW       SUNNY     55  32  41 N10G18    30.24S
$$

AZZ540-542>544-546-548-211900-
GREATER PHOENIX AREA

CITY           SKY/WX    TMP DP  RH WIND       PRES   REMARKS
PHOENIX        SUNNY     76  32  20 VRB3      30.05F
6HR MIN TEMP:  59; 6HR MAX TEMP:  78;

BUCKEYE        SUNNY     77  34  20 SE7       30.06F
GLENDALE       MOSUNNY   79  32  18 E6        30.07F
LUKE AFB       SUNNY     77  33  20 SE6       30.04F
6HR MIN TEMP:  54; 6HR MAX TEMP:  77;

DEER VALLEY    SUNNY     75  31  19 SW7       30.06F
6HR MIN TEMP:  57; 6HR MAX TEMP:  76;

SCOTTSDALE     SUNNY     77  34  21 SW6       30.07F
6HR MIN TEMP:  54; 6HR MAX TEMP:  77;

MESA-FALCON    SUNNY     77  32  19 SW7       30.07F
MESA-GATEWAY   MOSUNNY   75  30  19 W6        30.07F
CHANDLER       SUNNY     75  28  17 W6        30.07F
$$

AZZ539-553-211900-
SOUTHWEST MARICOPA COUNTY AND PINAL COUNTY

CITY           SKY/WX    TMP DP  RH WIND       PRES   REMARKS
CASA GRANDE    SUNNY     76  29  17 S3        30.08F
6HR MIN TEMP:  50; 6HR MAX TEMP:  76;

GILA BEND      FAIR      81  25  12 E7        30.03F
6HR MIN TEMP:  54; 6HR MAX TEMP:  81;

$$

AZZ503-504-507>509-211900-
SOUTHEAST ARIZONA

CITY           SKY/WX    TMP DP  RH WIND       PRES   REMARKS
TUCSON         SUNNY     72  25  17 SW5       30.11F
6HR MIN TEMP:  48; 6HR MAX TEMP:  73;

DAVIS-MONTHAN  SUNNY     75  27  17 N5        30.09F
6HR MIN TEMP:  48; 6HR MAX TEMP:  75;

RYAN FIELD     SUNNY     73  27  17 SW3       30.11
NOGALES        SUNNY     74  23  15 N8        30.11F
6HR MIN TEMP:  44; 6HR MAX TEMP:  74;

SIERRA VISTA   SUNNY     66  19  16 NE3       30.18S
6HR MIN TEMP:  47; 6HR MAX TEMP:  67;

DOUGLAS        SUNNY     68  21  16 VRB6      30.14F
6HR MIN TEMP:  37; 6HR MAX TEMP:  69;

SAFFORD        SUNNY     69  23  17 VRB6      30.09F
6HR MIN TEMP:  46; 6HR MAX TEMP:  70;

$$

AZZ532-211900-
SOUTHWEST ARIZONA

CITY           SKY/WX    TMP DP  RH WIND       PRES   REMARKS
YUMA           SUNNY     83  37  19 VRB7      30.02F
6HR MIN TEMP:  58; 6HR MAX TEMP:  83;

$$

CAZ041-043-047-048-061-525>527-560>570-211900-
SOUTHERN CALIFORNIA

CITY           SKY/WX    TMP DP  RH WIND       PRES   REMARKS
DOWNTOWN L.A.  SUNNY     78  50  37 CALM      30.04F
6HR MIN TEMP:  53; 6HR MAX TEMP:  78;

L.A. AIRPORT   MOSUNNY   75  46  35 CALM      30.05F
6HR MIN TEMP:  53; 6HR MAX TEMP:  76;

SAN DIEGO      PTSUNNY   69  51  52 NW9       30.05F
6HR MIN TEMP:  55; 6HR MAX TEMP:  71;

BURBANK        SUNNY     76  43  30 SE3       30.05F
6HR MIN TEMP:  53; 6HR MAX TEMP:  77;

ONTARIO        MOSUNNY   75  43  31 SW3       30.06F
6HR MIN TEMP:  50; 6HR MAX TEMP:  75;

RIVERSIDE      SUNNY     75  38  26 CALM      30.06F
6HR MIN TEMP:  49; 6HR MAX TEMP:  75;

PALM SPRINGS   SUNNY     84  30  14 E8        30.03F
6HR MIN TEMP:  59; 6HR MAX TEMP:  84;

EL CENTRO NAS  PTSUNNY   81  40  23 E5        30.03S
6HR MIN TEMP:  57; 6HR MAX TEMP:  82;

IMPERIAL       SUNNY     82  44  26 CALM      30.01F
6HR MIN TEMP:  56; 6HR MAX TEMP:  83;

BLYTHE         SUNNY     82  29  14 CALM      30.04F
6HR MIN TEMP:  56; 6HR MAX TEMP:  83;

NEEDLES        SUNNY     83  25  12 CALM      30.06F
6HR MIN TEMP:  62; 6HR MAX TEMP:  83;

$$

NVZ020-UTZ003-211900-
SOUTHERN NEVADA-UTAH

CITY           SKY/WX    TMP DP  RH WIND       PRES   REMARKS
LAS VEGAS      SUNNY     75  28  17 NE5       30.13F
6HR MIN TEMP:  58; 6HR MAX TEMP:  76;

SALT LAKE CITY MOSUNNY   63  30  28 CALM      30.19S
6HR MIN TEMP:  43; 6HR MAX TEMP:  63;

$$

NMZ009-TXZ055-211900-
NEW MEXICO-WEST TEXAS

CITY           SKY/WX    TMP DP  RH WIND       PRES   REMARKS
ALBUQUERQUE    MOSUNNY   51  30  44 W8        30.16F
6HR MIN TEMP:  35; 6HR MAX TEMP:  51;

EL PASO        MOSUNNY   67  20  16 N14       30.10F
6HR MIN TEMP:  51; 6HR MAX TEMP:  67;

$$


........................KEY........................
SKY/WX - SKY CONDITION/WEATHER
TMP    - TEMPERATURE IN FAHRENHEIT
DP     - DEW POINT IN FAHRENHEIT
RH     - RELATIVE HUMIDITY IN PERCENT
WIND   - DIRECTION AND SPEED IN MILES PER HOUR (MPH)
VRB    - VARIABLE WIND DIRECTION
PRES   - MEAN SEA LEVEL PRESSURE IN INCHES OF MERCURY
         F - FALLING PRESSURE   R - RISING PRESSURE
         S - STEADY PRESSURE
VSB    - VISIBILITY IN MILES
HX     - HEAT INDEX IN FAHRENHEIT
WCI    - WIND CHILL INDEX IN FAHRENHEIT
TC     - TEMPERATURE IN CELSIUS WHICH IS ALSO KNOWN AS
         TEMPERATURE IN CENTIGRADE
AFB    - AIR FORCE BASE
         LUKE AFB IS LUKE AIR FORCE BASE
         DAVIS-MONTHAN IS DAVIS-MONTHAN AIR FORCE BASE
NAS    - NAVAL AIR STATION
         EL CENTRO NAS IS EL CENTRO NAVAL AIR STATION
N/A    - NOT AVAILABLE





USA.gov is the U.S. government's official web portal to all federal, state and local government web resources and services.